Location: Boleita
(10.4833°N, 66.8167°W)
Time: 13:37:16
(UTC+00:00)

SWIFT - Pass Details

Date: 03 August 2024
Orbit: 493 x 502 km, 20.6° (Epoch: 15 September)

Event Time Altitude Azimuth Distance (km) Brightness Sun altitude
Rises 23:14:33 0° 258° (WSW) 2,604 6.9 -6.5°
Reaches altitude 10° 23:16:49 10° 262° (W) 1,717 6.0 -7.1°
Maximum altitude 23:20:45 60° 343° (NNW) 581 2.7 -8.0°
Drops below altitude 10° 23:24:40 10° 63° (ENE) 1,708 4.4 -8.9°
Enters shadow 23:25:51 - 66° (ENE) 2,167 4.9 -9.2°
